Laconia, NH

8:31 AM EDT on October 19, 2019 (GMT -0400)
Laconia Municipal

Weather History for KLCI - September, 2019

Change the Weather History Date:

Friday, September 20, 2019

  Actual Average Record
Temperature  
Mean Temperature 60 °F -  
Max Temperature 78 °F 71 °F 86 °F (1983)
Min Temperature 42 °F 48 °F 33 °F (2014)
Degree Days  
Heating Degree Days 6    
Growing Degree Days 10 (Base 50)    
Moisture  
Dew Point 49 °F    
Average Humidity 73    
Maximum Humidity 100    
Minimum Humidity 39    
Precipitation  
Precipitation 0.00 in - - ()
Sea Level Pressure  
Sea Level Pressure 30.17 in    
Wind  
Wind Speed 4 mph ()    
Max Wind Speed 9 mph    
Max Gust Speed -    
Visibility 9.8 miles    
Events      
Averages and records for this station are not official NWS values.
T = Trace of Precipitation, MM = Missing Value Source: Averaged Metar Reports

Daily Weather History Graph

Daily Weather History Graph

Search for Another Location

Airport or City:

Astronomy

Sep. 20, 2019 Rise Set
Actual Time 6:30 AM EDT 6:47 PM EDT
Civil Twilight 6:01 AM EDT 7:15 PM EDT
Nautical Twilight 5:28 AM EDT 7:49 PM EDT
Astronomical Twilight 4:53 AM EDT 8:23 PM EDT
Moon 10:23 PM EDT (9/20) 12:42 PM EDT (9/20)
Length of Visible Light 13h 14m
Length of Day
12h 16m
Waning Gibbous, 65% of the Moon is Illuminated
Sep 20
Waning Gibbous
Sep 21
Last Quarter
Sep 28
New
Oct 5
First Quarter
Oct 13
Full

Hourly Weather History & Observations

Time (EDT) Temp. Windchill Dew Point Humidity Pressure Visibility Wind Dir Wind Speed Gust Speed Precip Events Conditions
12:56 AM 46.0 °F 44.8 °F 44.1 °F 93% 30.24 in 10.0 mi WSW 3.5 mph - N/A   Clear
1:56 AM 44.1 °F - 43.0 °F 96% 30.23 in 10.0 mi Calm Calm - N/A   Clear
2:56 AM 43.0 °F 40.3 °F 42.1 °F 97% 30.21 in 10.0 mi SW 4.6 mph - N/A   Clear
3:41 AM 44.6 °F 41.4 °F 44.6 °F 100% 30.20 in 10.0 mi WSW 5.8 mph - N/A   Partly Cloudy
3:56 AM 43.0 °F 39.5 °F 43.0 °F 100% 30.20 in 10.0 mi WSW 5.8 mph - N/A   Partly Cloudy
4:56 AM 43.0 °F - 42.1 °F 97% 30.20 in 10.0 mi Calm Calm - N/A   Clear
5:56 AM 42.1 °F 40.2 °F 41.0 °F 96% 30.20 in 10.0 mi SSW 3.5 mph - N/A   Clear
6:56 AM 43.0 °F - 42.1 °F 97% 30.22 in 7.0 mi Calm Calm - N/A   Scattered Clouds
7:56 AM 48.9 °F - 46.0 °F 90% 30.22 in 10.0 mi WSW 3.5 mph - N/A   Clear
8:56 AM 54.0 °F - 46.9 °F 77% 30.22 in 10.0 mi WSW 3.5 mph - N/A   Clear
9:56 AM 61.0 °F - 46.9 °F 60% 30.21 in 10.0 mi SW 5.8 mph - N/A   Clear
10:56 AM 66.0 °F - 50.0 °F 56% 30.19 in 10.0 mi SSW 5.8 mph - N/A   Clear
11:56 AM 71.1 °F - 52.0 °F 51% 30.17 in 10.0 mi SSW 4.6 mph - N/A   Clear
12:56 PM 73.9 °F - 53.1 °F 48% 30.15 in 10.0 mi SW 5.8 mph - N/A   Clear
1:56 PM 75.9 °F - 53.1 °F 45% 30.12 in 10.0 mi SW 9.2 mph - N/A   Clear
2:56 PM 77.0 °F - 53.1 °F 43% 30.11 in 10.0 mi West 9.2 mph - N/A   Clear
3:56 PM 77.0 °F - 51.1 °F 40% 30.10 in 10.0 mi WSW 9.2 mph - N/A   Clear
4:56 PM 77.0 °F - 50.0 °F 39% 30.10 in 10.0 mi West 8.1 mph - N/A   Clear
5:56 PM 73.9 °F - 54.0 °F 50% 30.10 in 10.0 mi WSW 5.8 mph - N/A   Clear
6:56 PM 70.0 °F - 54.0 °F 57% 30.10 in 10.0 mi WSW 9.2 mph - N/A   Clear
7:56 PM 66.0 °F - 54.0 °F 65% 30.12 in 10.0 mi West 3.5 mph - N/A   Clear
8:56 PM 62.1 °F - 55.0 °F 78% 30.12 in 10.0 mi SW 5.8 mph - N/A   Clear
9:56 PM 59.0 °F - 54.0 °F 83% 30.14 in 10.0 mi Calm Calm - N/A   Clear
10:56 PM 57.9 °F - 54.0 °F 87% 30.14 in 10.0 mi Calm Calm - N/A   Clear
11:56 PM 57.0 °F - 53.1 °F 87% 30.14 in 8.0 mi WSW 4.6 mph - N/A   Clear